Location: Oberkirch
(48.5323°N, 8.0787°E)
Time: 21:50:29
(UTC+00:00)

Tiros 1 - Pass Details

Date: 20 February 2026
Orbit: 618 x 649 km, 48.4° (Epoch: 9 March)

Event Time Altitude Azimuth Distance (km) Brightness Sun altitude
Rises 12:28:22 0° 284° (WNW) 2,898 10.5 29.8°
Reaches altitude 10° 12:30:47 10° 277° (W) 1,986 9.8 29.7°
Maximum altitude 12:35:00 38° 209° (SSW) 946 10.1 29.5°
Drops below altitude 10° 12:39:12 10° 141° (SE) 1,974 10.2 29.3°
Sets 12:41:37 0° 134° (SE) 2,877 10.8 29.2°
